Tracking 31027 objects as of 19-Jul-2025
HD Live streaming from Space Station
objects crossing your sky now

COSMOS 2251 DEB

Track COSMOS 2251 DEB now!
10-day predictions


NORAD ID: 36424
Int'l Code: 1993-036AZX
Perigee: 430.3 km
Apogee: 462.2 km
Inclination: 74.2 °
Period: 93.4 minutes
Semi major axis: 6817 km
RCS: 0.0035 m2 (small)
Launch date: June 16, 1993
Source: Commonwealth of Independent States (former USSR) (CIS)
Launch site: PLESETSK MISSILE AND SPACE COMPLEX (PKMTR)

Note: This is SATELLITE DEBRIS
Your satellite tracking list
ABS 3
Track 1 satellite(s)




NASA's NSSDC Master Catalog

Two Line Element Set (TLE):
1 36424U 93036AZX 25198.56509615  .00495030  00000-0  10669-1 0  9996
2 36424  74.1529  51.4313 0023433 192.7447 167.3174 15.42367167821861
Source of the keplerian elements: AFSPC